Regional Weather Roundup
Issued by NWS Little Rock, AR

Home | Current Version | Previous Version | Text Only | Print | Product List | Glossary Off
Versions: 1 2 3 4 5 6 7 8 9 10 11 12 13 14 15 16 17 18 19 20 21 22 23 24 25 26 27 28 29 30 31 32 33 34 35 36 37 38 39 40 41 42 43 44 45 46 47 48 49 50

000
ASUS44 KLZK 010405
RWRLZK

WEATHER ROUNDUP FOR ARKANSAS
NATIONAL WEATHER SERVICE LITTLE ROCK AR
1000 PM CST SAT JAN 31 2015

NOTE: "FAIR" INDICATES FEW OR NO CLOUDS BELOW 12,000 FEET WITH NO
SIGNIFICANT WEATHER AND/OR OBSTRUCTIONS TO VISIBILITY.

ARZ001-003-010-029-010500-
NORTHWEST ARKANSAS

CITY           SKY/WX    TMP DP  RH WIND       PRES   REMARKS
FAYETTEVILLE   CLOUDY    41  32  70 S21G30    29.93F
FORT SMITH     CLOUDY    44  35  70 E8        29.99F
HARRISON       LGT RAIN  39  29  67 SE12      29.98F
BENTONVILLE    CLOUDY    39  32  75 S10       29.93F
ROGERS         LGT RAIN  39  34  81 SE14      29.92F
SILOAM SPGS    CLOUDY    41  30  65 S13G18    29.94S
HIGHFILL       LGT RAIN  41  34  76 S14       29.92F
$$

ARZ004-005-016-010500-
NORTH CENTRAL ARKANSAS

CITY           SKY/WX    TMP DP  RH WIND       PRES   REMARKS
BATESVILLE     CLOUDY    39  27  60 SE5       30.09F
FLIPPIN        CLOUDY    41  23  48 SE7       30.03F
MTN HOME       CLOUDY    40  26  57 SE12      30.03F
$$

ARZ040-041-010500-
WEST CENTRAL ARKANSAS

CITY           SKY/WX    TMP DP  RH WIND       PRES   REMARKS
MENA           CLOUDY    52  32  46 SE6       29.98F
MOUNT IDA      CLOUDY    46  31  55 CALM      30.01F
$$

ARZ009-017-025-026-028-010500-
NORTHEAST ARKANSAS

CITY           SKY/WX    TMP DP  RH WIND       PRES   REMARKS
CORNING        FAIR      39  32  75 NE6       30.11F
JONESBORO      CLOUDY    40  31  70 E6        30.09F
NEWPORT        CLOUDY    40  31  70 N3        30.11F
WALNUT RIDGE   CLOUDY    39  28  65 E3        30.10F
BLYTHEVILLE    CLOUDY    46  24  42 S7        30.10F
$$

ARZ022-023-033-042-044-010500-
CENTRAL ARKANSAS

CITY           SKY/WX    TMP DP  RH WIND       PRES   REMARKS
LITTLE ROCK    CLOUDY    43  30  60 CALM      30.09F
N LITTLE ROCK  CLOUDY    42  33  72 SE6       30.09F
JACKSONVILLE   CLOUDY    41  31  66 CALM      30.08F
SEARCY         CLOUDY    40  30  67 CALM      30.10F
HOT SPRINGS    CLOUDY    45  31  58 E7        30.05F
RUSSELLVILLE   CLOUDY    43  29  57 E7        30.05F
CLINTON        FAIR      39  32  75 CALM      30.09F
$$

ARZ036-010500-
EAST ARKANSAS

CITY           SKY/WX    TMP DP  RH WIND       PRES   REMARKS
WEST MEMPHIS   CLOUDY    47  27  45 S13       30.09F
$$

ARZ050-053-066-070-073-010500-
SOUTHWEST ARKANSAS

CITY           SKY/WX    TMP DP  RH WIND       PRES   REMARKS
ARKADELPHIA    MOCLDY    45  36  70 N3        30.07F
CAMDEN         CLOUDY    48  32  53 MISG      30.06F
TEXARKANA      CLOUDY    51  35  54 SE10      30.02F
EL DORADO      CLOUDY    51  32  48 SE7       30.06F
DE QUEEN       CLOUDY    49  34  56 E6        29.99F
$$

ARZ056-057-069-010500-
SOUTHEAST ARKANSAS

CITY           SKY/WX    TMP DP  RH WIND       PRES   REMARKS
PINE BLUFF     CLOUDY    43  34  70 SE6       30.08F
STUTTGART      CLOUDY    43  30  61 SE5       30.09F
MONTICELLO     CLOUDY    47  34  60 CALM      30.09F

$$




USA.gov is the U.S. government's official web portal to all federal, state and local government web resources and services.